Burlington, NC

2:54 AM EDT on September 26, 2016 (GMT -0400)
Burlington-Alamance Regional

Weather History for KBUY - January, 2013

Change the Weather History Date:

Saturday, January 26, 2013

  Actual Average Record
Temperature  
Mean Temperature 30 °F -  
Max Temperature 37 °F 51 °F 57 °F (2016)
Min Temperature 24 °F 28 °F 19 °F (2014)
Degree Days  
Heating Degree Days 34    
Moisture  
Dew Point 27 °F    
Average Humidity 90    
Maximum Humidity 100    
Minimum Humidity 79    
Precipitation  
Precipitation 0.00 in - - ()
Sea Level Pressure  
Sea Level Pressure 30.22 in    
Wind  
Wind Speed 3 mph (WSW)    
Max Wind Speed 9 mph    
Max Gust Speed -    
Visibility 5 miles    
Events      
Averages and records for this station are not official NWS values.
T = Trace of Precipitation, MM = Missing Value Source: NWS Daily Summary

Daily Weather History Graph

Daily Weather History Graph

Search for Another Location

Airport or City:

Trip Planner

Search our weather history database for the weather conditions in past years. The results will help you decide how hot, cold, wet, or windy it might be!

Date:

Astronomy

Jan. 26, 2013 Rise Set
Actual Time 7:22 AM EST 5:38 PM EST
Civil Twilight 6:55 AM EST 6:06 PM EST
Nautical Twilight 6:24 AM EST 6:37 PM EST
Astronomical Twilight 5:54 AM EST 7:07 PM EST
Moon 5:30 PM EST 6:40 AM EST
Length of Visible Light 11h 10m
Length of Day
10h 16m
Full, 100% of the Moon is Illuminated
Jan 26
Full
Jan 26
Full
Feb 3
Last Quarter
Feb 10
New
Feb 17
First Quarter

Hourly Weather History & Observations

Time (EST) Temp. Windchill Dew Point Humidity Pressure Visibility Wind Dir Wind Speed Gust Speed Precip Events Conditions
12:38 AM 26.6 °F 17.5 °F 24.8 °F 93% 30.09 in 5.0 mi West 9.2 mph - N/A   Overcast
12:54 AM 26.1 °F 17.6 °F 24.1 °F 92% 30.10 in 5.0 mi West 8.1 mph - N/A   Overcast
1:54 AM 27.0 °F 23.0 °F 25.0 °F 92% 30.09 in 4.0 mi WSW 3.5 mph - N/A   Overcast
2:54 AM 27.0 °F 18.7 °F 25.0 °F 92% 30.09 in 4.0 mi West 8.1 mph - N/A   Overcast
3:54 AM 27.0 °F 20.5 °F 26.1 °F 96% 30.09 in 4.0 mi West 5.8 mph - N/A   Overcast
4:32 AM 26.6 °F - 26.6 °F 100% 30.08 in 3.0 mi Calm Calm - N/A   Overcast
4:54 AM 26.1 °F 21.9 °F 24.1 °F 92% 30.10 in 4.0 mi SW 3.5 mph - N/A   Mostly Cloudy
5:47 AM 26.6 °F - 24.8 °F 93% 30.09 in 4.0 mi Calm Calm - N/A   Scattered Clouds
5:54 AM 26.1 °F - 24.1 °F 92% 30.12 in 3.0 mi Calm Calm - N/A   Partly Cloudy
6:54 AM 24.1 °F - 23.0 °F 96% 30.15 in 3.0 mi Calm Calm - N/A   Clear
7:41 AM 24.8 °F - 23.0 °F 93% 30.15 in 2.5 mi Calm Calm - N/A   Clear
7:54 AM 25.0 °F - 21.9 °F 88% 30.18 in 2.5 mi Calm Calm - N/A   Clear
8:41 AM 26.6 °F 22.6 °F 24.8 °F 93% 30.18 in 3.0 mi NW 3.5 mph - N/A   Clear
8:54 AM 28.0 °F 24.2 °F 26.1 °F 92% 30.20 in 4.0 mi WNW 3.5 mph - N/A   Clear
9:54 AM 30.9 °F - 26.1 °F 82% 30.23 in 7.0 mi Calm Calm - N/A   Clear
10:54 AM 32.0 °F - 28.0 °F 85% 30.25 in 5.0 mi Calm Calm - N/A   Clear
11:54 AM 33.1 °F - 28.9 °F 85% 30.25 in 6.0 mi Calm Calm - N/A   Clear
12:54 PM 36.0 °F - 30.0 °F 79% 30.23 in 10.0 mi Calm Calm - N/A   Clear
1:54 PM 36.0 °F 33.3 °F 32.0 °F 86% 30.21 in 9.0 mi SSE 3.5 mph - N/A   Clear
2:54 PM 37.0 °F - 30.9 °F 79% 30.22 in 10.0 mi Calm Calm - N/A   Clear
3:54 PM 37.0 °F 34.5 °F 32.0 °F 82% 30.23 in 10.0 mi South 3.5 mph - N/A   Clear
4:54 PM 37.0 °F - 30.9 °F 79% 30.25 in 10.0 mi Calm Calm - N/A   Clear
5:54 PM 35.1 °F - 32.0 °F 89% 30.27 in 10.0 mi Calm Calm - N/A   Clear
6:54 PM 32.0 °F - 30.0 °F 92% 30.30 in 8.0 mi Calm Calm - N/A   Clear
7:54 PM 30.0 °F - 28.9 °F 96% 30.31 in 4.0 mi Calm Calm - N/A   Clear
8:39 PM 28.4 °F - 26.6 °F 93% 30.30 in 1.8 mi Calm Calm - N/A   Clear
8:54 PM 28.9 °F - 28.0 °F 96% 30.33 in 2.5 mi Calm Calm - N/A   Clear
9:03 PM 28.4 °F - 26.6 °F 93% 30.31 in 0.8 mi Calm Calm - N/A   Clear
9:16 PM 28.4 °F - 26.6 °F 93% 30.32 in 2.0 mi Calm Calm - N/A   Clear
9:54 PM 28.0 °F - 26.1 °F 92% 30.36 in 2.5 mi Calm Calm - N/A   Clear
10:03 PM 28.4 °F - 26.6 °F 93% 30.35 in 3.0 mi Calm Calm - N/A   Clear
10:54 PM 28.0 °F - 27.0 °F 96% 30.39 in 4.0 mi Calm Calm - N/A   Clear
11:54 PM 28.9 °F 23.9 °F 25.0 °F 85% 30.40 in 10.0 mi North 4.6 mph - N/A   Clear